GW4824 Weather Reports


time (UTC)temp
C
wind
direction
speed
KPH
gust
KPH
rain 1hr
cm
rain 24hr
cm
rain mn
cm
humidity
%
barometer
mb
20260502170144 6 6 6.4 9.7 0.00 0.08 0.08 74 1016.5
20260502164130 6 104 0.0 0.0 0.00 0.08 0.08 74 1016.7
20260502163626 6 89 0.0 0.0 0.00 0.08 0.08 78 1016.6
20260502163123 6 67 1.6 1.6 0.00 0.08 0.08 76 1016.7
20260502162620 5 73 1.6 1.6 0.00 0.08 0.08 77 1016.7
20260502162117 6 88 0.0 0.0 0.00 0.08 0.08 77 1016.7
20260502161614 6 76 0.0 0.0 0.00 0.08 0.08 76 1016.7
20260502161111 6 136 0.0 0.0 0.00 0.08 0.08 78 1016.7
20260502160609 6 111 0.0 1.6 0.00 0.08 0.08 77 1016.7
20260502160108 6 108 1.6 3.2 0.00 0.08 0.08 75 1016.7
20260502152022 5 92 0.0 0.0 0.00 0.08 0.08 83 1016.4
20260502151518 5 33 1.6 3.2 0.00 0.08 0.08 81 1016.7
20260502151016 5 108 0.0 0.0 0.00 0.08 0.08 81 1016.6
20260502150513 5 16 1.6 4.8 0.00 0.08 0.08 80 1016.6
20260502130358 5 136 1.6 1.6 0.00 0.08 0.08 85 1016.0
20260502123341 2 143 0.0 1.6 0.00 0.08 0.08 90 1015.7
20260502122838 2 72 1.6 1.6 0.00 0.08 0.08 90 1015.5
20260502122333 2 151 0.0 1.6 0.00 0.08 0.08 91 1015.7
20260502121833 1 111 0.0 1.6 0.00 0.08 0.08 94 1015.8
20260502121329 1 109 0.0 0.0 0.00 0.08 0.08 95 1015.7
20260502120826 1 83 0.0 0.0 0.00 0.08 0.08 97 1015.8
20260502120322 1 90 0.0 0.0 0.00 0.08 0.08 99 1015.8
20260502115820 1 96 0.0 0.0 0.00 0.08 0.08 99 1015.9
20260502115317 0 123 0.0 0.0 0.00 0.08 0.08 99 1015.8
20260502114814 0 164 0.0 1.6 0.00 0.08 0.08 99 1015.8
20260502114310 0 94 0.0 0.0 0.00 0.08 0.08 99 1015.9
20260502113808 0 99 0.0 0.0 0.00 0.08 0.08 99 1015.7
20260502113305 0 101 0.0 0.0 0.00 0.08 0.08 99 1015.7
20260502112803 0 111 0.0 0.0 0.00 0.08 0.08 99 1015.7
20260502112300 0 97 0.0 0.0 0.00 0.08 0.08 99 1015.8
20260502111757 0 97 0.0 0.0 0.00 0.08 0.08 99 1015.4
20260502111255 0 97 0.0 0.0 0.00 0.08 0.08 99 1015.7
20260502110752 0 98 0.0 0.0 0.00 0.08 0.08 99 1015.7
20260502110250 0 98 0.0 0.0 0.00 0.08 0.08 99 1015.5
20260502105748 0 98 0.0 0.0 0.00 0.08 0.08 99 1015.4
20260502105244 0 101 0.0 0.0 0.00 0.08 0.08 99 1015.4
20260502104742 0 106 0.0 0.0 0.00 0.08 0.08 99 1015.4
20260502104239 0 101 0.0 0.0 0.00 0.08 0.08 99 1015.3
20260502103737 0 99 0.0 0.0 0.00 0.08 0.08 99 1015.1
20260502103234 0 97 0.0 0.0 0.00 0.08 0.08 99 1015.3
20260502102730 0 97 0.0 0.0 0.00 0.08 0.08 99 1015.3
20260502102227 0 108 0.0 0.0 0.00 0.08 0.08 99 1015.1
20260502101725 0 117 0.0 0.0 0.00 0.08 0.08 99 1015.4
20260502101223 0 104 0.0 0.0 0.00 0.08 0.08 99 1015.3
20260502100721 0 100 0.0 0.0 0.00 0.08 0.08 99 1015.3
20260502100219 0 100 0.0 0.0 0.00 0.08 0.08 99 1015.3
20260502091153 0 105 0.0 0.0 0.00 0.08 0.08 99 1015.3
20260502090651 0 105 0.0 0.0 0.00 0.08 0.08 99 1015.1
20260502090147 0 108 0.0 0.0 0.00 0.08 0.08 99 1015.1
20260502071049 2 120 0.0 0.0 0.00 0.08 0.08 99 1015.3
20260502070547 2 110 0.0 1.6 0.00 0.08 0.08 99 1015.2
20260502070045 2 117 0.0 0.0 0.00 0.08 0.08 99 1015.0
20260502065543 2 118 0.0 0.0 0.00 0.08 0.08 99 1014.9
20260502065040 2 118 0.0 0.0 0.00 0.08 0.08 99 1015.3
20260502064539 2 118 0.0 0.0 0.00 0.08 0.08 99 1015.4
20260502064035 2 112 0.0 0.0 0.00 0.08 0.08 99 1015.3
20260502063533 2 124 0.0 0.0 0.00 0.08 0.08 99 1015.4
20260502063031 2 120 0.0 0.0 0.00 0.08 0.08 99 1015.2
20260502062527 2 115 0.0 0.0 0.00 0.08 0.08 99 1015.7
20260502062026 2 118 0.0 0.0 0.00 0.08 0.08 99 1015.4
20260502061524 2 124 0.0 0.0 0.00 0.08 0.08 99 1015.4
20260502061020 2 117 0.0 0.0 0.00 0.08 0.08 99 1015.3
20260502060515 2 117 0.0 0.0 0.00 0.08 0.08 99 1015.5
20260502060013 2 117 0.0 0.0 0.00 0.08 0.08 99 1015.7
20260502055510 2 119 0.0 0.0 0.00 0.08 0.08 99 1015.7
20260502055009 2 118 0.0 0.0 0.00 0.08 0.08 99 1015.7
20260502054507 2 117 0.0 0.0 0.00 0.08 0.08 99 1015.8
20260502054004 2 116 0.0 0.0 0.00 0.08 0.08 99 1015.7
20260502053501 3 116 0.0 0.0 0.18 0.08 0.08 99 1015.7
20260502052959 3 137 0.0 1.6 0.18 0.08 0.08 99 1015.7
20260502052457 3 117 0.0 0.0 0.00 0.05 0.05 99 1015.8
20260502051955 3 113 0.0 0.0 0.00 0.05 0.05 98 1015.7
20260502051452 3 113 0.0 0.0 0.00 0.05 0.05 98 1015.7
20260502050949 3 123 0.0 0.0 0.00 0.05 0.05 98 1015.7
20260502050446 3 110 0.0 0.0 0.00 0.05 0.05 98 1015.5
20260502045943 3 110 0.0 0.0 0.00 0.05 0.05 98 1015.8
20260502045440 3 110 0.0 0.0 0.00 0.05 0.05 98 1015.7
20260502044937 3 110 0.0 0.0 0.00 0.05 0.05 98 1015.7
20260502044432 4 110 0.0 0.0 0.00 0.05 0.05 98 1015.7
20260502043929 4 120 0.0 0.0 0.13 0.05 0.05 98 1015.8
20260502043427 3 110 0.0 0.0 0.30 0.05 0.05 98 1015.7
20260502042926 3 103 0.0 0.0 0.18 0.03 0.03 98 1016.1
20260502042424 3 117 0.0 0.0 0.00 0.00 0.00 98 1016.1
20260502041921 3 119 0.0 0.0 0.00 0.00 0.00 98 1015.8
20260502041419 3 103 0.0 0.0 0.00 0.00 0.00 97 1015.7
20260502040916 3 103 0.0 0.0 0.00 0.00 0.00 96 1015.5
20260502040412 3 103 0.0 0.0 0.00 0.00 0.00 96 1015.5
20260502035908 3 103 0.0 0.0 0.00 0.43 0.43 96 1015.8
20260502035405 3 103 0.0 0.0 0.00 0.43 0.43 96 1015.9
20260502034903 3 103 0.0 0.0 0.00 0.43 0.43 96 1015.5
20260502034401 3 103 0.0 0.0 0.00 0.43 0.43 95 1015.9
20260502033859 4 103 0.0 0.0 0.00 0.43 0.43 95 1015.7
20260502033356 4 103 0.0 0.0 0.00 0.43 0.43 95 1016.1
20260502032853 5 103 0.0 0.0 0.00 0.43 0.43 94 1016.0
20260502032349 5 104 0.0 0.0 0.00 0.43 0.43 94 1016.0
20260502031847 5 104 0.0 0.0 0.00 0.43 0.43 93 1016.2
20260502031345 5 104 0.0 0.0 0.00 0.43 0.43 93 1015.7
20260502030843 5 104 0.0 0.0 0.00 0.43 0.43 93 1016.0
20260502030341 5 104 0.0 0.0 0.00 0.43 0.43 92 1016.0
20260502025838 5 104 0.0 0.0 0.00 0.43 0.43 93 1015.9
20260502025335 5 104 0.0 0.0 0.00 0.43 0.43 92 1016.0
20260502024833 5 102 0.0 0.0 0.00 0.43 0.43 92 1015.8
20260502024331 5 56 1.6 1.6 0.00 0.43 0.43 92 1016.0
20260502023829 5 103 0.0 0.0 0.00 0.43 0.43 91 1015.8
20260502023326 5 103 0.0 0.0 0.00 0.43 0.43 92 1015.7
20260502022824 5 103 0.0 0.0 0.00 0.43 0.43 93 1015.7
20260502022320 5 103 0.0 0.0 0.00 0.43 0.43 93 1015.5
20260502021817 5 103 0.0 0.0 0.00 0.43 0.43 93 1015.5
20260502021314 5 103 0.0 0.0 0.00 0.43 0.43 93 1015.7
20260502020811 5 103 0.0 0.0 0.00 0.43 0.43 92 1015.7
20260502020309 5 103 0.0 0.0 0.00 0.43 0.43 92 1015.4
20260502015806 5 103 0.0 0.0 0.00 0.43 0.43 92 1015.4
20260502015305 5 103 0.0 0.0 0.00 0.43 0.43 93 1015.4
20260502014800 5 103 0.0 0.0 0.00 0.43 0.43 93 1015.5
20260502014257 5 103 0.0 0.0 0.00 0.43 0.43 92 1015.4
20260502013753 5 103 0.0 0.0 0.00 0.43 0.43 92 1015.2
20260502013248 5 103 0.0 0.0 0.00 0.43 0.43 90 1015.2
20260502012745 5 103 0.0 0.0 0.00 0.43 0.43 88 1015.1
20260502012243 5 103 0.0 0.0 0.00 0.43 0.43 87 1015.2
20260502011740 5 103 0.0 0.0 0.00 0.43 0.43 87 1014.7
20260502011236 5 103 0.0 0.0 0.00 0.43 0.43 86 1014.7
20260502010734 5 103 0.0 0.0 0.00 0.43 0.43 88 1014.6
20260502010229 5 103 0.0 0.0 0.00 0.43 0.43 88 1014.7
20260502005727 5 103 0.0 0.0 0.00 0.43 0.43 89 1014.9
20260502005225 5 103 0.0 0.0 0.00 0.43 0.43 89 1014.9
20260502004721 6 103 0.0 0.0 0.00 0.43 0.43 88 1014.9
20260502004218 5 103 0.0 0.0 0.00 0.43 0.43 88 1015.0
20260502003716 5 103 0.0 0.0 0.00 0.43 0.43 88 1014.9
20260502003213 6 102 0.0 0.0 0.00 0.43 0.43 88 1015.1
20260502002708 6 102 0.0 0.0 0.00 0.43 0.43 89 1014.9
20260502002207 6 102 0.0 0.0 0.00 0.43 0.43 87 1014.7
20260502001703 6 102 0.0 0.0 0.00 0.43 0.43 87 1014.7
20260502001201 6 106 0.0 0.0 0.00 0.43 0.43 84 1014.3
20260502000658 6 100 0.0 0.0 0.00 0.43 0.43 87 1014.6
20260502000156 6 100 0.0 0.0 0.00 0.43 0.43 86 1014.4
20260501235652 6 123 0.0 0.0 0.00 0.43 0.43 87 1014.1
20260501235148 6 89 0.0 0.0 0.00 0.43 0.43 87 1014.1
20260501234644 6 88 0.0 0.0 0.00 0.43 0.43 86 1014.2
20260501234141 6 88 0.0 0.0 0.00 0.43 0.43 86 1013.9
20260501233639 6 88 0.0 0.0 0.00 0.43 0.43 86 1013.9
20260501233136 6 88 0.0 0.0 0.00 0.43 0.43 87 1014.1
20260501232632 6 93 0.0 0.0 0.00 0.43 0.43 85 1013.9
20260501232130 6 93 0.0 0.0 0.00 0.43 0.43 86 1013.8
20260501231627 6 83 0.0 0.0 0.00 0.43 0.43 84 1013.8
20260501231125 6 111 0.0 0.0 0.00 0.43 0.43 84 1013.6
20260501230623 6 89 0.0 0.0 0.00 0.43 0.43 82 1013.7
20260501230121 7 85 0.0 0.0 0.00 0.43 0.43 84 1013.9
20260501225619 7 105 0.0 0.0 0.00 0.43 0.43 84 1013.8
20260501225114 7 98 0.0 1.6 0.00 0.43 0.43 86 1013.9
20260501224612 6 127 1.6 1.6 0.00 0.43 0.43 84 1013.9
20260501224109 7 92 0.0 0.0 0.00 0.43 0.43 86 1013.9
20260501223605 7 117 0.0 0.0 0.00 0.43 0.43 85 1014.1
20260501223102 7 109 0.0 0.0 0.00 0.43 0.43 86 1014.0
20260501222558 7 89 0.0 1.6 0.00 0.43 0.43 86 1013.9
20260501222055 7 105 0.0 0.0 0.00 0.43 0.43 86 1014.0
20260501221552 7 98 0.0 0.0 0.00 0.43 0.43 86 1014.0
20260501221049 7 72 0.0 0.0 0.00 0.43 0.43 83 1014.0
20260501220547 7 94 0.0 0.0 0.00 0.43 0.43 85 1014.0
20260501220043 6 106 0.0 0.0 0.00 0.43 0.43 85 1013.7
20260501215540 7 111 0.0 0.0 0.00 0.43 0.43 83 1013.8
20260501215035 7 81 0.0 0.0 0.00 0.43 0.43 84 1013.7
20260501214531 7 91 0.0 0.0 0.00 0.43 0.43 85 1013.6
20260501214027 7 89 0.0 0.0 0.00 0.43 0.43 86 1013.4
20260501213524 6 110 3.2 3.2 0.00 0.43 0.43 86 1013.3
20260501213020 6 56 1.6 1.6 0.00 0.43 0.43 91 1013.3
20260501212516 6 109 0.0 0.0 0.00 0.43 0.43 90 1013.2
20260501212014 6 75 0.0 1.6 0.00 0.43 0.43 89 1013.2
20260501211510 6 111 0.0 1.6 0.00 0.43 0.43 90 1013.1
20260501211008 6 22 1.6 1.6 0.00 0.43 0.43 89 1013.3
20260501210504 6 81 1.6 1.6 0.00 0.43 0.43 89 1013.0
20260501210001 7 94 0.0 0.0 0.00 0.43 0.43 89 1012.9
20260501205457 7 78 0.0 1.6 0.00 0.43 0.43 90 1012.9
20260501204955 6 102 0.0 0.0 0.00 0.43 0.43 91 1013.0
20260501204451 6 160 1.6 3.2 0.00 0.43 0.43 91 1012.8
20260501203947 6 94 0.0 0.0 0.00 0.43 0.43 89 1012.8
20260501203444 6 353 3.2 3.2 0.00 0.43 0.43 88 1012.8
20260501202942 6 104 1.6 4.8 0.00 0.43 0.43 91 1012.8
20260501202438 6 118 0.0 0.0 0.00 0.43 0.43 91 1012.9
20260501201935 6 97 0.0 1.6 0.00 0.43 0.43 90 1012.6
20260501201432 6 174 3.2 3.2 0.00 0.43 0.43 92 1012.5
20260501200929 6 91 0.0 0.0 0.00 0.43 0.43 93 1012.5
20260501200426 6 100 1.6 1.6 0.00 0.43 0.43 93 1012.5
20260501195923 6 93 1.6 1.6 0.00 0.43 0.43 93 1012.4
20260501195420 6 32 1.6 1.6 0.00 0.43 0.43 93 1012.4
20260501194915 6 100 0.0 0.0 0.00 0.43 0.43 92 1012.1
20260501194411 6 128 3.2 4.8 0.00 0.43 0.43 93 1012.1
20260501193908 6 125 0.0 1.6 0.00 0.43 0.43 94 1012.3
20260501193406 6 185 3.2 3.2 0.00 0.43 0.43 93 1012.1
20260501192903 6 103 0.0 1.6 0.00 0.43 0.43 94 1011.9
20260501192400 6 38 3.2 6.4 0.00 0.43 0.43 92 1011.9
20260501191857 7 91 1.6 1.6 0.00 0.43 0.43 92 1011.8
20260501191354 7 72 1.6 3.2 0.00 0.43 0.43 93 1011.7
20260501190851 7 177 1.6 3.2 0.00 0.43 0.43 95 1011.5
20260501190347 8 120 1.6 1.6 0.00 0.43 0.43 95 1011.5
20260501185842 8 103 0.0 1.6 0.18 0.43 0.43 96 1011.4
20260501185339 7 81 0.0 1.6 0.18 0.43 0.43 97 1011.3
20260501184835 6 96 0.0 0.0 0.00 0.41 0.41 96 1011.4
20260501184331 6 159 3.2 6.4 0.13 0.41 0.41 96 1011.3
20260501183826 7 78 1.6 3.2 0.61 0.41 0.41 96 1011.1
20260501183324 7 179 4.8 6.4 0.89 0.38 0.38 95 1010.8
20260501182820 7 232 1.6 3.2 0.61 0.30 0.30 95 1010.6
20260501182317 8 86 0.0 1.6 0.30 0.25 0.25 95 1010.6
20260501181814 8 115 0.0 1.6 0.13 0.20 0.20 95 1010.6
20260501181311 8 112 0.0 0.0 0.13 0.20 0.20 95 1010.3
20260501180808 8 120 0.0 0.0 0.00 0.18 0.18 95 1010.4
20260501180304 8 126 1.6 1.6 0.00 0.18 0.18 95 1010.6
20260501175801 8 164 0.0 0.0 0.00 0.18 0.18 95 1010.7
20260501175258 8 128 0.0 1.6 0.00 0.18 0.18 94 1010.4
20260501174755 8 122 0.0 0.0 0.00 0.18 0.18 95 1010.6
20260501174252 8 113 0.0 0.0 0.00 0.18 0.18 95 1010.6
20260501173750 7 110 0.0 0.0 0.00 0.18 0.18 95 1010.5
20260501173247 7 91 0.0 0.0 0.00 0.18 0.18 95 1010.7
20260501172743 7 111 0.0 0.0 0.00 0.18 0.18 95 1010.4
20260501172238 7 126 0.0 1.6 0.00 0.18 0.18 94 1010.5
20260501171734 7 118 0.0 0.0 0.00 0.18 0.18 94 1010.6